Location: Newark
(46.6000°N, 11.5667°E)
Time: 19:40:27
(UTC+00:00)

N. Korean satellite - Visible Passes

Search period start: 27 January 2020 00:00
Search period end: 06 February 2020 00:00
Orbit: 454 x 507 km, 97.2° (Epoch: 27 January)

Date Brightness Start Highest point End Pass type
(mag) Time Alt. Az. Time Alt. Az. Time Alt. Az.
27 Jan 7.3 04:52:59 10° NNE 04:56:31 54° E 05:00:04 10° S visible
27 Jan 9.6 17:05:24 10° SW 17:07:50 18° W 17:10:18 10° NW visible
28 Jan 8.8 04:27:49 10° NE 04:30:55 27° E 04:34:03 10° SSE visible
28 Jan 7.7 06:01:20 10° NNW 06:04:13 23° WNW 06:07:06 10° WSW visible
28 Jan 8.4 16:39:00 10° SSW 16:42:11 36° W 16:45:24 10° NNW visible
29 Jan 9.8 04:03:14 10° ENE 04:05:15 14° E 04:07:16 10° SE visible
29 Jan 6.9 05:35:24 10° N 05:38:50 43° WNW 05:42:18 10° SW visible
30 Jan 6.5 05:09:46 10° NNE 05:13:23 90° E 05:17:03 10° SSW visible
30 Jan 10.1 17:23:33 10° WSW 17:24:50 12° W 17:26:07 10° WNW visible
31 Jan 7.9 04:44:23 10° NNE 04:47:51 43° E 04:51:21 10° S visible
31 Jan 9.4 16:56:20 10° SSW 16:59:07 23° W 17:01:55 10° NW visible
01 Feb 9.2 04:19:20 10° NE 04:22:14 22° E 04:25:08 10° SSE visible
01 Feb 7.5 05:52:28 10° N 05:55:37 28° WNW 05:58:47 10° SW visible
02 Feb 10.1 03:55:11 10° ENE 03:56:31 12° E 03:57:50 10° ESE visible
02 Feb 6.6 05:26:39 10° N 05:30:13 55° WNW 05:33:49 10° SSW visible
03 Feb 6.9 05:01:05 10° NNE 05:04:44 71° E 05:08:25 10° S visible
03 Feb 9.8 17:14:02 10° SW 17:16:04 15° W 17:18:06 10° NW visible
04 Feb 8.4 04:35:48 10° NNE 04:39:10 34° E 04:42:34 10° SSE visible
04 Feb 8.9 16:47:20 10° SSW 16:50:22 28° W 16:53:27 10° NW visible
05 Feb 9.6 04:10:55 10° NE 04:13:31 18° E 04:16:07 10° SE visible
05 Feb 7.2 05:43:38 10° N 05:47:00 35° WNW 05:50:23 10° SW visible
